CALSPHERE 1 1 00900U 64063C 26208.88394532 .00000554 00000+0 55355-3 0 9997 2 00900 90.2198 72.7219 0025556 164.3129 327.1062 13.76662562 77028 CALSPHERE 2 1 00902U 64063E 26208.62876956 .00000068 00000+0 88532-4 0 9990 2 00902 90.2326 76.7583 0020503 107.9209 283.7490 13.52902978861733 LCS 1 1 01361U 65034C 26208.86572245 .00000004 00000+0 -58686-3 0 9996 2 01361 32.1421 80.4344 0012309 266.3652 93.5438 9.89310662213916 TEMPSAT 1 1 01512U 65065E 26208.44755777 .00000049 00000+0 79476-4 0 9994 2 01512 89.9981 212.5951 0071145 134.4600 21.5874 13.33596115965415 CALSPHERE 4A 1 01520U 65065H 26208.72681050 .00000088 00000+0 15140-3 0 9996 2 01520 89.8983 122.0889 0070012 351.0237 36.5877 13.36284946968124 OPS 5712 (P/L 160) 1 02826U 67053A 26208.79118972 .00007369 00000+0 10241-2 0 9995 2 02826 69.9178 298.7329 0003117 298.1915 61.8918 14.78220654 72233 OPS 5712 (P/L 153) 1 02874U 67053H 26208.43927684 .00000048 00000+0 72813-4 0 9999 2 02874 69.9740 29.0274 0006142 163.4007 196.7301 13.96833995 12417 RIGIDSPHERE 2 (LCS 4) 1 05398U 71067E 26208.83314473 .00000769 00000+0 24302-3 0 9992 2 05398 87.6249 327.5243 0062185 97.9417 262.8845 14.37917089879725 COSMOS 2493 (SKRL-756 1) 1 39490U 13078A 26208.84955905 .00003487 00000+0 26122-3 0 9994 2 39490 82.4100 221.3993 0014619 105.1394 255.1449 15.02339607684065 COSMOS 2494 (SKRL-756 2) 1 39491U 13078B 26208.84062893 .00003197 00000+0 22229-3 0 9992 2 39491 82.4102 210.6268 0017490 70.1697 290.1413 15.05076655684920